Location: *
(51.2167°N, 10.0667°E)
Time: 17:20:47
(UTC+00:00)

CZ-4 R/B - Pass Details

Date: 12 December 2019
Orbit: 533 x 598 km, 97.7° (Epoch: 26 January)

Event Time Altitude Azimuth Distance (km) Brightness Sun altitude
Rises 18:43:32 0° 208° (SSW) 2,698 5.2 -31.8°
Reaches altitude 10° 18:46:22 10° 231° (SW) 1,803 4.5 -32.2°
Maximum altitude 18:48:47 16° 270° (W) 1,468 4.2 -32.6°
Drops below altitude 10° 18:51:12 10° 308° (NW) 1,801 4.5 -33.0°
Sets 18:54:02 0° 331° (NNW) 2,695 5.2 -33.4°
